Torna al catalogo

STARLINK-6047

AttivoComunicazioniVLEO
NORAD 56460·PAYLOAD·🇺🇸 United States

Lanciato May 10, 2023 da Vandenberg Space Force Base

Loading…

Prossimi Passaggi (prossime 24 ore)

TLE

AggiornatoSource: CelesTrak SupGP

Epoca: Sep 15, 2026, 02:09 UTC

1 56460C 23064N   26258.09006944 -.00012055  00000+0 -10105-2 0  2582
2 56460  70.0031  26.8539 0002980 272.5834 237.4250 14.98325795    14

Traccia STARLINK-6047 in tempo reale con AllMySat

Download on the App Store